Location: Newark
(52.8300°N, 8.0000°E)
Time: 18:04:22
(UTC+00:00)

STARLINK-1114 - Pass Details

Date: 31 January 2020
Orbit: 554 x 555 km, 53.0° (Epoch: 28 February)

Event Time Altitude Azimuth Distance (km) Brightness Sun altitude
Rises 17:59:26 0° 286° (WNW) 2,739 8.4 -16.5°
Reaches altitude 10° 18:01:58 10° 273° (W) 1,842 7.6 -16.8°
Maximum altitude 18:05:22 24° 218° (SW) 1,160 5.7 -17.3°
Drops below altitude 10° 18:08:46 10° 164° (SSE) 1,835 6.2 -17.9°
Enters shadow 18:09:56 - 156° (SSE) 2,230 6.5 -18.0°
